H1 CPF 2 NER 2024 3 10 9 070 01 glonass131 H2 1301901 9131 39155 2024 3 10 0 0 0 2024 3 13 23 45 0 900 1 1 0 0 0 1 H9 10 0 60379 0.00000 0 -13390373.035 19179751.801 -10044263.212 10 0 60379 900.00000 0 -12738693.861 17906904.992 -12843471.625 10 0 60379 1800.00000 0 -12083394.563 16274669.224 -15391592.080 10 0 60379 2700.00000 0 -11479834.579 14311071.333 -17638750.032 10 0 60379 3600.00000 0 -10978141.600 12056184.294 -19540982.184 10 0 60379 4500.00000 0 -10620953.322 9560664.782 -21061114.195 10 0 60379 5400.00000 0 -10441495.899 6883849.638 -22169499.186 10 0 60379 6300.00000 0 -10462082.189 4091492.131 -22844601.629 10 0 60379 7200.00000 0 -10693094.319 1253234.378 -23073414.889 10 0 60379 8100.00000 0 -11132493.668 -1560076.589 -22851704.640 10 0 60379 9000.00000 0 -11765878.255 -4279115.421 -22184074.315 10 0 60379 9900.00000 0 -12567083.602 -6838732.688 -21083852.707 10 0 60379 10800.00000 0 -13499299.701 -9180425.600 -19572807.708 10 0 60379 11700.00000 0 -14516654.624 -11254522.556 -17680693.706 10 0 60379 12600.00000 0 -15566195.615 -13021991.731 -15444643.603 10 0 60379 13500.00000 0 -16590181.959 -14455800.513 -12908419.310 10 0 60379 14400.00000 0 -17528591.273 -15541772.060 -10121537.214 10 0 60379 15300.00000 0 -18321732.454 -16278906.813 -7138287.328 10 0 60379 16200.00000 0 -18912854.805 -16679159.405 -4016666.511 10 0 60379 17100.00000 0 -19250643.791 -16766684.239 -817247.350 10 0 60379 18000.00000 0 -19291499.345 -16576584.899 2397994.835 10 0 60379 18900.00000 0 -19001502.440 -16153222.786 5566874.261 10 0 60379 19800.00000 0 -18357989.110 -15548158.109 8628183.719 10 0 60379 20700.00000 0 -17350667.776 -14817810.757 11522858.501 10 0 60379 21600.00000 0 -15982234.743 -14020939.456 14195094.309 10 0 60379 22500.00000 0 -14268463.356 -13216044.185 16593399.554 10 0 60379 23400.00000 0 -12237763.670 -12458799.355 18671563.903 10 0 60379 24300.00000 0 -9930230.760 -11799623.353 20389526.729 10 0 60379 25200.00000 0 -7396220.132 -11281484.102 21714130.931 10 0 60379 26100.00000 0 -4694507.499 -10938030.530 22619749.498 10 0 60379 27000.00000 0 -1890106.629 -10792126.525 23088774.219 10 0 60379 27900.00000 0 948167.511 -10854847.873 23111957.985 10 0 60379 28800.00000 0 3750292.686 -11124984.109 22688604.175 10 0 60379 29700.00000 0 6447686.322 -11589067.052 21826598.893 10 0 60379 30600.00000 0 8975798.720 -12221926.613 20542283.997 10 0 60379 31500.00000 0 11276547.293 -12987753.104 18860171.360 10 0 60379 32400.00000 0 13300492.234 -13841624.399 16812501.352 10 0 60379 33300.00000 0 15008663.674 -14731436.873 14438651.215 10 0 60379 34200.00000 0 16373963.767 -15600161.703 11784401.971 10 0 60379 35100.00000 0 17382083.943 -16388333.678 8901075.381 10 0 60379 36000.00000 0 18031897.142 -17036668.889 5844555.515 10 0 60379 36900.00000 0 18335306.461 -17488700.970 2674212.402 10 0 60379 37800.00000 0 18316554.523 -17693323.574 -548252.040 10 0 60379 38700.00000 0 18011020.939 -17607129.563 -3760013.278 10 0 60379 39600.00000 0 17463557.523 -17196445.085 -6898364.071 10 0 60379 40500.00000 0 16726431.300 -16438969.025 -9901959.226 10 0 60379 41400.00000 0 15856962.956 -15324944.870 -12712038.684 10 0 60379 42300.00000 0 14914962.074 -13857811.940 -15273602.491 10 0 60379 43200.00000 0 13960069.896 -12054305.513 -17536512.070 10 0 60379 44100.00000 0 13049124.626 -9943999.390 -19456493.794 10 0 60379 45000.00000 0 12233663.453 -7568308.845 -20996023.080 10 0 60379 45900.00000 0 11557669.429 -4978995.531 -22125070.125 10 0 60379 46800.00000 0 11055660.398 -2236237.554 -22821691.707 10 0 60379 47700.00000 0 10751201.958 593653.212 -23072457.144 10 0 60379 48600.00000 0 10655907.574 3440769.515 -22872700.413 10 0 60379 49500.00000 0 10768967.485 6234295.090 -22226594.373 10 0 60379 50400.00000 0 11077224.841 8905225.416 -21147047.067 10 0 60379 51300.00000 0 11555793.755 11389008.433 -19655423.806 10 0 60379 52200.00000 0 12169190.627 13627994.917 -17781102.471 10 0 60379 53100.00000 0 12872928.252 15573596.978 -15560872.759 10 0 60379 54000.00000 0 13615502.794 17188066.226 -13038193.158 10 0 60379 54900.00000 0 14340687.505 18445819.846 -10262322.007 10 0 60379 55800.00000 0 14990034.635 19334262.291 -7287341.267 10 0 60379 56700.00000 0 15505478.957 19854071.872 -4171093.349 10 0 60379 57600.00000 0 15831932.843 20018944.005 -974052.547 10 0 60379 58500.00000 0 15919763.948 19854805.528 2241846.488 10 0 60379 59400.00000 0 15727052.253 19398536.195 5414400.615 10 0 60379 60300.00000 0 15221533.031 18696253.444 8482327.910 10 0 60379 61200.00000 0 14382145.860 17801233.976 11386433.287 10 0 60379 62100.00000 0 13200126.358 16771559.921 14070729.078 10 0 60379 63000.00000 0 11679596.316 15667587.902 16483490.915 10 0 60379 63900.00000 0 9837628.326 14549345.844 18578230.714 10 0 60379 64800.00000 0 7703782.320 13473964.670 20314570.308 10 0 60379 65700.00000 0 5319132.469 12493250.112 21659001.112 10 0 60379 66600.00000 0 2734823.288 11651493.867 22585517.115 10 0 60379 67500.00000 0 10212.436 10983613.531 23076110.482 10 0 60379 68400.00000 0 -2789325.863 10513697.482 23121121.121 10 0 60379 69300.00000 0 -5594849.135 10254014.741 22719433.626 10 0 60379 70200.00000 0 -8336448.806 10204531.275 21878517.212 10 0 60379 71100.00000 0 -10945901.627 10352953.956 20614306.516 10 0 60379 72000.00000 0 -13359263.117 10675302.123 18950923.560 10 0 60379 72900.00000 0 -15519297.309 11136985.187 16920243.743 10 0 60379 73800.00000 0 -17377642.792 11694343.740 14561311.393 10 0 60379 74700.00000 0 -18896624.795 12296592.068 11919613.379 10 0 60379 75600.00000 0 -20050636.766 12888082.576 9046222.152 10 0 60379 76500.00000 0 -20827031.998 13410798.249 5996822.604 10 0 60379 77400.00000 0 -21226485.725 13806968.543 2830640.099 10 0 60379 78300.00000 0 -21262810.181 14021697.694 -390710.281 10 0 60379 79200.00000 0 -20962228.246 14005492.734 -3604430.837 10 0 60379 80100.00000 0 -20362134.662 13716581.699 -6747780.252 10 0 60379 81000.00000 0 -19509396.169 13122920.670 -9759318.688 10 0 60379 81900.00000 0 -18458262.372 12203801.071 -12580132.533 10 0 60379 82800.00000 0 -17267976.469 10950985.553 -15155012.294 10 0 60379 83700.00000 0 -16000188.557 9369321.123 -17433558.023 10 0 60379 84600.00000 0 -14716283.049 7476800.861 -19371188.174 10 0 60379 85500.00000 0 -13474735.694 5304069.699 -20930030.005 10 0 60380 0.00000 0 -12328614.410 2893394.320 -22079672.407 10 0 60380 900.00000 0 -11323330.929 297138.965 -22797765.961 10 0 60380 1800.00000 0 -10494741.106 -2424184.879 -23070456.662 10 0 60380 2700.00000 0 -9867672.572 -5204216.298 -22892647.171 10 0 60380 3600.00000 0 -9454943.013 -7973289.424 -22268079.718 10 0 60380 4500.00000 0 -9256908.575 -10661117.920 -21209241.069 10 0 60380 5400.00000 0 -9261559.441 -13199505.982 -19737093.019 10 0 60380 6300.00000 0 -9445155.857 -15524972.030 -17880635.619 10 0 60380 7200.00000 0 -9773374.726 -17581175.663 -15676313.724 10 0 60380 8100.00000 0 -10202915.319 -19321047.542 -13167280.512 10 0 60380 9000.00000 0 -10683493.446 -20708535.062 -10402534.214 10 0 60380 9900.00000 0 -11160137.538 -21719893.422 -7435946.581 10 0 60380 10800.00000 0 -11575687.979 -22344471.286 -4325203.370 10 0 60380 11700.00000 0 -11873393.260 -22584961.643 -1130678.356 10 0 60380 12600.00000 0 -11999493.273 -22457110.903 2085736.728 10 0 60380 13500.00000 0 -11905681.401 -21988901.683 5261823.655 10 0 60380 14400.00000 0 -11551342.898 -21219246.271 8336228.101 10 0 60380 15300.00000 0 -10905476.895 -20196247.460 11249626.949 10 0 60380 16200.00000 0 -9948223.002 -18975100.681 13945851.523 10 0 60380 17100.00000 0 -8671929.919 -17615725.320 16372947.023 10 0 60380 18000.00000 0 -7081722.443 -16180223.510 18484149.878 10 0 60380 18900.00000 0 -5195543.537 -14730271.023 20238766.494 10 0 60380 19800.00000 0 -3043669.313 -13324547.083 21602938.719 10 0 60380 20700.00000 0 -667715.832 -12016307.969 22550283.194 10 0 60380 21600.00000 0 1880823.151 -10851203.275 23062393.824 10 0 60380 22500.00000 0 4542449.682 -9865423.826 23129198.585 10 0 60380 23400.00000 0 7251871.973 -9084257.084 22749164.014 10 0 60380 24300.00000 0 9940463.616 -8521109.641 21929342.846 10 0 60380 25200.00000 0 12538873.181 -8177037.832 20685262.591 10 0 60380 26100.00000 0 14979678.999 -8040807.116 19040655.191 10 0 60380 27000.00000 0 17199981.262 -8089479.540 17027030.512 10 0 60380 27900.00000 0 19143825.160 -8289506.892 14683099.059 10 0 60380 28800.00000 0 20764354.504 -8598286.071 12054052.256 10 0 60380 29700.00000 0 22025605.421 -8966113.529 9190711.545 10 0 60380 30600.00000 0 22903863.637 -9338458.180 6148560.532 10 0 60380 31500.00000 0 23388526.327 -9658457.866 2986677.420 10 0 60380 32400.00000 0 23482429.862 -9869533.870 -233412.385 10 0 60380 33300.00000 0 23201627.163 -9918011.833 -3448941.116 10 0 60380 34200.00000 0 22574621.876 -9755636.069 -6597136.606 10 0 60380 35100.00000 0 21641090.097 -9341867.893 -9616467.638 10 0 60380 36000.00000 0 20450142.890 -8645867.185 -12447870.235 10 0 60380 36900.00000 0 19058203.134 -7648069.612 -15035928.400 10 0 60380 37800.00000 0 17526587.446 -6341289.213 -17329983.627 10 0 60380 38700.00000 0 15918897.033 -4731296.629 -19285149.007 10 0 60380 39600.00000 0 14298329.869 -2836846.142 -20863205.895 10 0 60380 40500.00000 0 12725029.957 -689148.824 -22033363.970 10 0 60380 41400.00000 0 11253587.602 1669186.696 -22772868.755 10 0 60380 42300.00000 0 9930797.726 4185701.148 -23067444.311 10 0 60380 43200.00000 0 8793771.528 6800053.414 -22911562.699 10 0 60380 44100.00000 0 7868480.952 9446327.378 -22308535.782 10 0 60380 45000.00000 0 7168796.278 12055578.750 -21270428.872 10 0 60380 45900.00000 0 6696055.384 14558513.914 -19817799.637 10 0 60380 46800.00000 0 6439180.163 16888187.864 -17979269.264 10 0 60380 47700.00000 0 6375331.984 18982607.995 -15790936.353 10 0 60380 48600.00000 0 6471075.103 20787135.329 -13295646.999 10 0 60380 49500.00000 0 6683995.625 22256583.959 -10542137.221 10 0 60380 50400.00000 0 6964704.660 23356932.855 -7584066.164 10 0 60380 51300.00000 0 7259138.727 24066581.067 -4478960.292 10 0 60380 52200.00000 0 7511058.632 24377096.878 -1287090.040 10 0 60380 53100.00000 0 7664640.519 24293432.813 1929698.689 10 0 60380 54000.00000 0 7667049.832 23833600.754 5109175.531 10 0 60380 54900.00000 0 7470890.362 23027823.572 8189916.648 10 0 60380 55800.00000 0 7036426.566 21917201.046 11112473.659 10 0 60380 56700.00000 0 6333487.241 20551947.269 13820499.492 10 0 60380 57600.00000 0 5342972.202 18989273.742 16261811.329 10 0 60380 58500.00000 0 4057900.116 17291006.139 18389372.327 10 0 60380 59400.00000 0 2483954.422 15521032.923 20162175.483 10 0 60380 60300.00000 0 639504.572 13742690.196 21546014.870 10 0 60380 61200.00000 0 -1444899.147 12016189.387 22514131.341 10 0 60380 62100.00000 0 -3727537.874 10396192.282 23047721.820 10 0 60380 63000.00000 0 -6157004.025 8929631.957 23136303.321 10 0 60380 63900.00000 0 -8674090.414 7653868.342 22777924.908 10 0 60380 64800.00000 0 -11214013.807 6595253.913 21979223.001 10 0 60380 65700.00000 0 -13708884.268 5768168.781 20755317.668 10 0 60380 66600.00000 0 -16090321.082 5174565.759 19129549.966 10 0 60380 67500.00000 0 -18292109.379 4804045.591 17133062.915 10 0 60380 68400.00000 0 -20252788.835 4634460.904 14804231.422 10 0 60380 69300.00000 0 -21918067.507 4633025.695 12187949.283 10 0 60380 70200.00000 0 -23242959.888 4757885.891 9334784.423 10 0 60380 71100.00000 0 -24193558.612 4960086.741 6300016.417 10 0 60380 72000.00000 0 -24748363.525 5185855.344 3142573.406 10 0 60380 72900.00000 0 -24899109.819 5379102.335 -76111.856 10 0 60380 73800.00000 0 -24651057.600 5484036.377 -3293304.540 10 0 60380 74700.00000 0 -24022728.049 5447779.205 -6446204.647 10 0 60380 75600.00000 0 -23045095.162 5222868.003 -9473192.564 10 0 60380 76500.00000 0 -21760265.691 4769535.910 -12315056.869 10 0 60380 77400.00000 0 -20219702.483 4057670.523 -14916177.870 10 0 60380 78300.00000 0 -18482066.573 3068363.857 -17225641.117 10 0 60380 79200.00000 0 -16610770.252 1794984.834 -19198256.668 10 0 60380 80100.00000 0 -14671346.172 243726.241 -20795461.931 10 0 60380 81000.00000 0 -12728745.504 -1566398.979 -21986088.787 10 0 60380 81900.00000 0 -10844681.048 -3604113.054 -22746978.891 10 0 60380 82800.00000 0 -9075128.997 -5826957.220 -23063434.690 10 0 60380 83700.00000 0 -7468095.550 -8182857.997 -22929497.549 10 0 60380 84600.00000 0 -6061742.632 -10612109.050 -22348048.333 10 0 60380 85500.00000 0 -4882950.869 -13049684.078 -21330729.790 10 0 60381 0.00000 0 -3946378.672 -15427782.079 -19897694.062 10 0 60381 900.00000 0 -3254054.027 -17678498.411 -18077181.317 10 0 60381 1800.00000 0 -2795514.205 -19736505.774 -15904941.825 10 0 60381 2700.00000 0 -2548482.198 -21541636.972 -13423512.218 10 0 60381 3600.00000 0 -2480049.001 -23041258.689 -10681363.820 10 0 60381 4500.00000 0 -2548307.806 -24192339.505 -7731940.672 10 0 60381 5400.00000 0 -2704368.226 -24963127.393 -4632607.489 10 0 60381 6300.00000 0 -2894663.209 -25334369.039 -1443528.997 10 0 60381 7200.00000 0 -3063449.739 -25300022.835 1773496.994 10 0 60381 8100.00000 0 -3155397.225 -24867438.718 4956230.136 10 0 60381 9000.00000 0 -3118154.581 -24057000.139 8043179.128 10 0 60381 9900.00000 0 -2904788.771 -22901245.488 10974772.305 10 0 60381 10800.00000 0 -2475993.552 -21443507.372 13694486.079 10 0 60381 11700.00000 0 -1801977.190 -19736127.402 16149911.405 10 0 60381 12600.00000 0 -863951.447 -17838320.901 18293739.828 10 0 60381 13500.00000 0 344839.384 -15813779.544 20084652.425 10 0 60381 14400.00000 0 1818591.937 -13728109.987 21488096.791 10 0 60381 15300.00000 0 3538941.969 -11646212.723 22476939.050 10 0 60381 16200.00000 0 5475488.569 -9629707.481 23031979.957 10 0 60381 17100.00000 0 7586824.650 -7734509.463 23142326.111 10 0 60381 18000.00000 0 9822033.653 -6008654.769 22805609.399 10 0 60381 18900.00000 0 12122593.655 -4490463.505 22028049.963 10 0 60381 19800.00000 0 14424613.371 -3207115.855 20824360.233 10 0 60381 20700.00000 0 16661310.600 -2173700.118 19217489.938 10 0 60381 21600.00000 0 18765633.137 -1392772.919 17238214.585 10 0 60381 22500.00000 0 20672915.387 -854451.216 14924572.538 10 0 60381 23400.00000 0 22323461.269 -537034.023 12321158.753 10 0 60381 24300.00000 0 23664945.876 -408129.732 9478286.108 10 0 60381 25200.00000 0 24654534.609 -426243.556 6451028.293 10 0 60381 26100.00000 0 25260629.212 -542759.707 3298161.198 10 0 60381 27000.00000 0 25464164.903 -704235.468 81022.441 10 0 60381 27900.00000 0 25259401.132 -854910.105 -3137688.827 10 0 60381 28800.00000 0 24654169.699 -939321.416 -6295147.662 10 0 60381 29700.00000 0 23669567.045 -904917.107 -9329649.004 10 0 60381 30600.00000 0 22339101.612 -704547.590 -12181836.895 10 0 60381 31500.00000 0 20707330.949 -298731.274 -14795890.716 10 0 60381 32400.00000 0 18828045.684 342407.135 -17120642.663 10 0 60381 33300.00000 0 16762077.473 1237610.797 -19110602.122 10 0 60381 34200.00000 0 14574824.605 2393444.906 -20726864.666 10 0 60381 35100.00000 0 12333601.277 3803777.380 -21937886.224 10 0 60381 36000.00000 0 10104924.050 5449809.519 -22720106.139 10 0 60381 36900.00000 0 7951851.474 7300655.963 -23058406.469 10 0 60381 37800.00000 0 5931490.057 9314449.335 -22946398.718 10 0 60381 38700.00000 0 4092771.974 11439922.245 -22386533.178 10 0 60381 39600.00000 0 2474597.600 13618398.812 -21390029.997 10 0 60381 40500.00000 0 1104419.630 15786110.518 -19976634.983 10 0 60381 41400.00000 0 -2673.965 17876737.724 -18174206.812 10 0 60381 42300.00000 0 -844342.563 19824069.001 -16018145.760 10 0 60381 43200.00000 0 -1430828.630 21564666.079 -13550677.141 10 0 60381 44100.00000 0 -1784257.356 23040422.674 -10820005.360 10 0 60381 45000.00000 0 -1937433.549 24200910.571 -7879356.814 10 0 60381 45900.00000 0 -1932190.064 25005416.073 -4785931.698 10 0 60381 46800.00000 0 -1817360.372 25424583.479 -1599786.098 10 0 60381 47700.00000 0 -1646462.984 25441599.202 1617333.285 10 0 60381 48600.00000 0 -1475196.689 25052869.646 4803179.123 10 0 60381 49500.00000 0 -1358852.634 24268167.132 7896195.601 10 0 60381 50400.00000 0 -1349751.822 23110240.107 10836690.552 10 0 60381 51300.00000 0 -1494814.853 21613905.768 13567966.490 10 0 60381 52200.00000 0 -1833364.556 19824664.017 16037390.544 10 0 60381 53100.00000 0 -2395252.165 17796890.757 18197384.823 10 0 60381 54000.00000 0 -3199384.108 15591685.072 20006320.439 10 0 60381 54900.00000 0 -4252710.132 13274458.297 21429300.213 10 0 60381 55800.00000 0 -5549714.702 10912362.972 22438817.003 10 0 60381 56700.00000 0 -7072433.506 8571665.748 23015276.576 10 0 60381 57600.00000 0 -8790995.805 6315170.418 23147375.973 10 0 60381 58500.00000 0 -10664672.385 4199795.275 22832330.391 10 0 60381 59400.00000 0 -12643388.455 2274403.023 22075943.766 10 0 60381 60300.00000 0 -14669642.010 577971.632 20892520.493 10 0 60381 61200.00000 0 -16680751.306 -861818.671 19304618.087 10 0 60381 62100.00000 0 -18611341.160 -2029523.536 17342643.149 10 0 60381 63000.00000 0 -20395967.175 -2922357.887 15044295.644 10 0 60381 63900.00000 0 -21971770.173 -3550085.460 12453869.388 10 0 60381 64800.00000 0 -23281050.718 -3934377.364 9621419.565 10 0 60381 65700.00000 0 -24273655.632 -4107664.683 6601811.057 10 0 60381 66600.00000 0 -24909074.985 -4111531.728 3453664.401 10 0 60381 67500.00000 0 -25158159.211 -3994716.526 238218.868 10 0 60381 68400.00000 0 -25004381.172 -3810802.600 -2981865.311 10 0 60381 69300.00000 0 -24444586.821 -3615700.160 -6143741.483 10 0 60381 70200.00000 0 -23489199.678 -3465024.825 -9185622.324 10 0 60381 71100.00000 0 -22161867.808 -3411487.178 -12048010.427 10 0 60381 72000.00000 0 -20498566.177 -3502406.748 -14674887.189 10 0 60381 72900.00000 0 -18546191.168 -3777459.069 -17014834.159 10 0 60381 73800.00000 0 -16360706.263 -4266754.568 -19022062.434 10 0 60381 74700.00000 0 -14004917.748 -4989333.741 -20657327.707 10 0 60381 75600.00000 0 -11545975.368 -5952144.730 -21888711.385 10 0 60381 76500.00000 0 -9052704.753 -7149548.356 -22692251.326 10 0 60381 77400.00000 0 -6592885.540 -8563372.384 -23052409.389 10 0 60381 78300.00000 0 -4230590.950 -10163512.823 -22962366.787 10 0 60381 79200.00000 0 -2023701.424 -11909056.258 -22424142.207 10 0 60381 80100.00000 0 -21696.781 -13749874.672 -21448531.632 10 0 60381 81000.00000 0 1736181.263 -15628624.059 -20054872.665 10 0 60381 81900.00000 0 3222320.923 -17483061.089 -18270639.845 10 0 60381 82800.00000 0 4421630.688 -19248578.907 -16130880.884 10 0 60381 83700.00000 0 5331894.199 -20860854.354 -13677506.903 10 0 60381 84600.00000 0 5963578.578 -22258494.878 -10958452.399 10 0 60381 85500.00000 0 6339108.309 -23385574.039 -8026723.110 10 0 60382 0.00000 0 6491639.122 -24193949.917 -4939352.016 10 0 60382 900.00000 0 6463387.052 -24645270.990 -1756283.142 10 0 60382 1800.00000 0 6303585.730 -24712586.281 1460790.349 10 0 60382 2700.00000 0 6066160.220 -24381496.085 4649616.655 10 0 60382 3600.00000 0 5807216.201 -23650796.335 7748577.703 10 0 60382 4500.00000 0 5582450.477 -22532592.408 10697862.863 10 0 60382 5400.00000 0 5444591.098 -21051879.406 13440602.515 10 0 60382 6300.00000 0 5440973.412 -19245607.639 15923941.463 10 0 60382 7200.00000 0 5611352.214 -17161272.740 18100033.602 10 0 60382 8100.00000 0 5986040.060 -14855088.649 19926941.006 10 0 60382 9000.00000 0 6584448.297 -12389818.113 21369422.356 10 0 60382 9900.00000 0 7414090.949 -9832348.762 22399597.571 10 0 60382 10800.00000 0 8470092.944 -7251112.674 22997477.461 10 0 60382 11700.00000 0 9735223.979 -4713453.421 23151349.266 10 0 60382 12600.00000 0 11180458.239 -2283046.816 22858011.005 10 0 60382 13500.00000 0 12766039.116 -17479.494 22122849.695 10 0 60382 14400.00000 0 14443007.650 2033916.392 20959760.796 10 0 60382 15300.00000 0 16155134.306 3831883.899 19390908.550 10 0 60382 16200.00000 0 17841176.926 5348642.377 17446329.439 10 0 60382 17100.00000 0 19437373.562 6568810.287 15163383.672 10 0 60382 18000.00000 0 20880068.262 7489810.214 12586062.412 10 0 60382 18900.00000 0 22108361.244 8121737.603 9764161.461 10 0 60382 19800.00000 0 23066672.599 8486696.856 6752335.021 10 0 60382 20700.00000 0 23707110.935 8617630.860 3609046.207 10 0 60382 21600.00000 0 23991545.482 8556691.819 395433.705 10 0 60382 22500.00000 0 23893291.628 8353221.220 -2825883.555 10 0 60382 23400.00000 0 23398335.625 8061424.324 -5992039.666 10 0 60382 24300.00000 0 22506043.398 7737838.431 -9041167.494 10 0 60382 25200.00000 0 21229320.399 7438703.911 -11913630.567 10 0 60382 26100.00000 0 19594213.112 7217351.865 -14553214.535 10 0 60382 27000.00000 0 17638967.204 7121722.123 -16908252.359 10 0 60382 27900.00000 0 15412581.050 7192119.907 -18932658.707 10 0 60382 28800.00000 0 12972915.603 7459309.213 -20586851.044 10 0 60382 29700.00000 0 10384440.877 7943026.263 -21838537.700 10 0 60382 30600.00000 0 7715715.149 8650977.820 -22663356.293 10 0 60382 31500.00000 0 5036704.366 9578367.897 -23045349.484 10 0 60382 32400.00000 0 2416055.824 10707973.069 -22977268.901 10 0 60382 33300.00000 0 -81558.409 12010762.732 -22460701.983 10 0 60382 34200.00000 0 -2397916.383 13447036.895 -21506020.496 10 0 60382 35100.00000 0 -4483436.074 14968031.906 -20132153.332 10 0 60382 36000.00000 0 -6298989.576 16517924.560 -18366189.911 10 0 60382 36900.00000 0 -7817267.762 18036148.346 -16242823.962 10 0 60382 37800.00000 0 -9023641.186 19459922.720 -13803650.574 10 0 60382 38700.00000 0 -9916484.694 20726887.920 -11096332.155 10 0 60382 39600.00000 0 -10506956.087 21777733.924 -8173651.334 10 0 60382 40500.00000 0 -10818242.185 22558713.246 -5092470.672 10 0 60382 41400.00000 0 -10884307.818 23023932.839 -1912620.489 10 0 60382 42300.00000 0 -10748203.675 23137330.283 1304262.934 10 0 60382 43200.00000 0 -10460006.773 22874253.248 4495926.110 10 0 60382 44100.00000 0 -10074481.923 22222578.164 7600691.447 10 0 60382 45000.00000 0 -9648563.263 21183323.344 10558632.477 10 0 60382 45900.00000 0 -9238761.618 19770732.800 13312709.946 10 0 60382 46800.00000 0 -8898605.642 18011828.573 15809848.663 10 0 60382 47700.00000 0 -8676222.655 15945450.892 18001936.469 10 0 60382 48600.00000 0 -8612158.851 13620825.928 19846728.349 10 0 60382 49500.00000 0 -8737528.389 11095719.607 21308640.584 10 0 60382 50400.00000 0 -9072567.453 8434252.256 22359421.639 10 0 60382 51300.00000 0 -9625652.859 5704462.181 22978688.582 10 0 60382 52200.00000 0 -10392826.234 2975716.094 23154319.746 10 0 60382 53100.00000 0 -11357844.495 316070.547 22882696.496 10 0 60382 54000.00000 0 -12492756.302 -2210309.398 22168789.054 10 0 60382 54900.00000 0 -13758982.949 -4545569.902 21026083.618 10 0 60382 55800.00000 0 -15108861.624 -6640328.049 19476350.348 10 0 60382 56700.00000 0 -16487589.788 -8455482.948 17549254.329 10 0 60382 57600.00000 0 -17835492.514 -9963603.138 15281814.257 10 0 60382 58500.00000 0 -19090520.453 -11149831.807 12717716.469 10 0 60382 59400.00000 0 -20190875.517 -12012270.727 9906494.840 10 0 60382 60300.00000 0 -21077654.852 -12561825.047 6902590.052 10 0 60382 61200.00000 0 -21697401.580 -12821513.515 3764304.746 10 0 60382 62100.00000 0 -22004453.466 -12825271.428 552673.817 10 0 60382 63000.00000 0 -21962988.122 -12616295.433 -2669728.388 10 0 60382 63900.00000 0 -21548675.319 -12244999.527 -5840020.024 10 0 60382 64800.00000 0 -20749863.195 -11766668.941 -8896257.447 10 0 60382 65700.00000 0 -19568244.766 -11238912.401 -11778668.350 10 0 60382 66600.00000 0 -18018973.486 -10719022.629 -14430845.736 10 0 60382 67500.00000 0 -16130220.481 -10261359.509 -16800876.865 10 0 60382 68400.00000 0 -13942190.494 -9914869.690 -18842382.539 10 0 60382 69300.00000 0 -11505637.278 -9720850.618 -20515444.140 10 0 60382 70200.00000 0 -8879941.086 -9711056.298 -21787398.538 10 0 60382 71100.00000 0 -6130829.920 -9906227.002 -22633484.107 10 0 60382 72000.00000 0 -3327841.594 -10315106.404 -23037324.656 10 0 60382 72900.00000 0 -541634.549 -10933988.123 -22991241.922 10 0 60382 73800.00000 0 2158738.553 -11746810.407 -22496391.178 10 0 60382 74700.00000 0 4708479.319 -12725793.805 -21562718.491 10 0 60382 75600.00000 0 7049503.149 -13832593.148 -20208742.091 10 0 60382 76500.00000 0 9132607.459 -15019913.185 -18461163.924 10 0 60382 77400.00000 0 10919259.366 -16233517.510 -16354321.036 10 0 60382 78300.00000 0 12382930.399 -17414544.102 -13929489.508 10 0 60382 79200.00000 0 13509925.477 -18502028.224 -11234056.468 10 0 60382 80100.00000 0 14299675.093 -19435525.308 -8320578.079 10 0 60382 81000.00000 0 14764482.428 -20157722.939 -5245743.334 10 0 60382 81900.00000 0 14928739.955 -20616932.302 -2069264.853 10 0 60382 82800.00000 0 14827652.056 -20769355.198 1147281.039 10 0 60382 83700.00000 0 14505520.366 -20581032.861 4341642.334 10 0 60382 84600.00000 0 14013666.116 -20029396.555 7452084.810 10 0 60382 85500.00000 0 13408078.090 -19104356.893 10418568.708 99